Regional Weather Roundup
Issued by NWS

Home | Current Version | Previous Version | Text Only | Print | Product List | Glossary On
Versions: 1 2 3 4 5 6 7 8 9 10 11 12 13 14 15 16 17 18 19 20 21 22 23 24 25 26 27
000
ASPQ40 PGUM 230912
RWRPQ
WEATHER ROUNDUP FOR THE MARIANAS AND MICRONESIA
NATIONAL WEATHER SERVICE TIYAN GU
700 PM CHST THU OCT 23 2014

GUZ001>004-231000-
MARIANA ISLANDS-

CITY           SKY/WX    TMP DP  RH WIND       PRES   REMARKS
GUAM AIRPORT   MOCLDY    79  75  89 NE9       29.84R
ANDERSEN AFB   MOCLDY    79  77  94 NE10      29.84R
ROTA AIRPORT   PTCLDY    81  77  89 E8        29.83R
TINIAN AP      PTCLDY    81  77  89 E7        29.81R
SAIPAN AP      PTCLDY    82  77  83 E9        29.83R HX  91

$$

PMZ161-231000-
REPUBLIC OF PALAU-

CITY           SKY/WX    TMP DP  RH WIND       PRES   REMARKS
KOROR AP       CLOUDY    79  77  94 NW3       29.79R
KOROR WSO      CLOUDY    81  79  94 CALM      29.78R

$$

PMZ171>174-231000-
FEDERATED STATES OF MICRONESIA-

CITY           SKY/WX    TMP DP  RH WIND       PRES   REMARKS
YAP AIRPORT    MOCLDY    82  77  83 VRB3      29.79R HX  91
CHUUK AP       LGT RAIN  79  79 100 VRB2      29.82R
POHNPEI AP     NOT AVBL
POHNPEI WSO    CLOUDY    81  79  94 SE2       29.84R
KOSRAE AP      NOT AVBL

$$

PMZ181-231000-
REPUBLIC OF THE MARSHALL ISLANDS-

CITY           SKY/WX    TMP DP  RH WIND       PRES   REMARKS
KWAJALEIN AP   CLEAR     84  73  70 NE12      29.86R HX  91
MAJURO AP      NOT AVBL
MAJURO WSO     MOCLDY    82  75  78 VRB2      29.84R

$$




USA.gov is the U.S. government's official web portal to all federal, state and local government web resources and services.